Content
SEND FEEDBACK

Daily
Averages
Monthly
Summary
United States of America

ORANGE, TEXAS


Home > North America > United States > Texas
Elevation: 1 foot     Latitude: 30 07N     Longitude: 093 47W

WEATHER
 
SELECT A DAY
Number of Records: 118,912;   Date Range: 8/25/05 - 12/17/14
 
SHARE

PRINT THIS DATA

[ ← Previous Day ]
WEATHER ALMANAC - JANUARY 17, 2013
[ Next Day → ]
[ °C ]   °F
Weather ElementAverageHighLow
Temperature42.7 °F59 °F (2:35 pm)30.2 °F (7:15 am)
Dewpoint32.2 °F37.4 °F (7:55 pm)28.4 °F (10:55 am)
Humidity71.5 %100 % (7:15 am)38 % (1:15 pm)
Barometer30.37 in30.48 in (11:15 pm)30.28 in (12:35 am)
Wind Speed4.7 mph12.7 mph (2:15 pm)
Wind Gust16.1 mph (10:55 am)
Weather ElementAverage
Visibility10 mi
Wind DirectionSSW (211.7 °)

Weather ElementTotal
Precipitation---
Heating Degree Days20.4 (Base 65)
Averaged from 58 records on January 17, 2013
WEATHER CONDITIONS BREAKOUT
WIND DIRECTION BREAKOUT
WEATHER BY HOUR - JANUARY 17, 2013
[ °C ]   °F
Local TimeTemperatureDewpointHumidityBarometerVisibilityWind DirectionWind SpeedGust SpeedPrecipitationEventsConditions
12:35 AM35.6 °F30.2 °F81 %30.28 in10.0 miWest (270°)4.6 mphClear
12:55 AM35.6 °F30.2 °F81 %30.28 in10.0 miWNW (290°)3.5 mphClear
1:15 AM35.6 °F30.2 °F81 %30.28 in10.0 miWNW (290°)4.6 mphClear
1:35 AM35.6 °F30.2 °F81 %30.29 in10.0 miWest (270°)3.5 mphClear
1:55 AM33.8 °F30.2 °F87 %30.29 in10.0 miWNW (290°)4.6 mphClear
2:15 AM33.8 °F30.2 °F87 %30.29 in10.0 miWest (280°)3.5 mphClear
2:35 AM33.8 °F30.2 °F87 %30.30 in10.0 miWest (260°)3.5 mphClear
2:55 AM33.8 °F30.2 °F87 %30.31 in10.0 miCalmClear
3:35 AM32.0 °F30.2 °F93 %30.31 in10.0 miCalmClear
3:55 AM32.0 °F30.2 °F93 %30.32 in10.0 miCalmClear
4:15 AM32.0 °F30.2 °F93 %30.31 in10.0 miWNW (290°)3.5 mphClear
4:35 AM32.0 °F30.2 °F93 %30.32 in10.0 miWest (280°)4.6 mphClear
4:55 AM33.8 °F30.2 °F87 %30.31 in10.0 miNW (310°)4.6 mphClear
5:15 AM33.8 °F30.2 °F87 %30.33 in10.0 miWest (280°)3.5 mphClear
5:35 AM32.0 °F30.2 °F93 %30.33 in10.0 miWest (280°)3.5 mphClear
6:15 AM32.0 °F30.2 °F93 %30.34 in10.0 miWest (270°)3.5 mphClear
6:35 AM32.0 °F30.2 °F93 %30.35 in10.0 miCalmClear
6:55 AM32.0 °F30.2 °F93 %30.36 in10.0 miCalmClear
7:15 AM30.2 °F30.2 °F100 %30.37 in10.0 miCalmClear
7:35 AM32.0 °F30.2 °F93 %30.38 in10.0 miWest (280°)3.5 mphClear
7:55 AM33.8 °F30.2 °F87 %30.38 in10.0 miWest (260°)3.5 mphClear
8:15 AM33.8 °F32.0 °F93 %30.39 in10.0 miWest (270°)3.5 mphClear
8:35 AM35.6 °F32.0 °F87 %30.40 in10.0 miWest (270°)4.6 mphClear
8:55 AM39.2 °F32.0 °F75 %30.41 in10.0 miWest (280°)3.5 mphClear
9:15 AM42.8 °F32.0 °F66 %30.41 in10.0 miWNW (300°)5.8 mphClear
9:35 AM44.6 °F32.0 °F61 %30.42 in10.0 miWest (280°)5.8 mphClear
9:55 AM46.4 °F32.0 °F57 %30.42 in10.0 miWNW (300°)8.1 mphClear
10:15 AM48.2 °F32.0 °F54 %30.42 in10.0 miWNW (300°)6.9 mphClear
10:35 AM50.0 °F30.2 °F47 %30.41 in10.0 miWNW (300°)9.2 mphClear
10:55 AM50.0 °F28.4 °F43 %30.42 in10.0 miNW (310°)10.4 mph16.1 mphClear
11:15 AM51.8 °F30.2 °F44 %30.40 in10.0 miWNW (300°)9.2 mphClear
11:35 AM51.8 °F30.2 °F44 %30.39 in10.0 miNNW (330°)10.4 mphClear
11:55 AM53.6 °F30.2 °F41 %30.39 in10.0 miWNW (290°)9.2 mphClear
12:15 PM53.6 °F30.2 °F41 %30.37 in10.0 miNW (320°)6.9 mphClear
12:35 PM53.6 °F30.2 °F41 %30.36 in10.0 miNW (320°)11.5 mphClear
12:55 PM53.6 °F30.2 °F41 %30.35 in10.0 miWNW (300°)11.5 mphClear
1:15 PM55.4 °F30.2 °F38 %30.34 in10.0 miWNW (290°)10.4 mph16.1 mphClear
1:35 PM55.4 °F32.0 °F41 %30.34 in10.0 miNW (310°)9.2 mphClear
1:55 PM57.2 °F32.0 °F38 %30.33 in10.0 miNW (320°)10.4 mphClear
2:15 PM57.2 °F32.0 °F38 %30.33 in10.0 miNW (320°)12.7 mph16.1 mphClear
2:35 PM59.0 °F33.8 °F39 %30.33 in10.0 miNNW (340°)8.1 mphClear
2:55 PM59.0 °F33.8 °F39 %30.33 in10.0 miNorth (350°)8.1 mph16.1 mphClear
3:15 PM59.0 °F33.8 °F39 %30.33 in10.0 miNorth (350°)9.2 mphClear
3:35 PM59.0 °F33.8 °F39 %30.34 in10.0 miNorth (350°)9.2 mphClear
3:55 PM59.0 °F33.8 °F39 %30.35 in10.0 miNW (320°)8.1 mphClear
4:55 PM57.2 °F35.6 °F44 %30.37 in10.0 miNNW (330°)8.1 mphClear
5:35 PM53.6 °F35.6 °F51 %30.39 in10.0 miNNW (330°)5.8 mphClear
6:15 PM51.8 °F35.6 °F54 %30.40 in10.0 miCalmClear
7:55 PM42.8 °F37.4 °F81 %30.44 in10.0 miCalmClear
8:15 PM41.0 °F37.4 °F87 %30.45 in10.0 miCalmClear
8:35 PM41.0 °F37.4 °F87 %30.45 in10.0 miCalmClear
8:55 PM39.2 °F37.4 °F93 %30.46 in10.0 miCalmClear
9:15 PM37.4 °F37.4 °F100 %30.47 in10.0 miCalmClear
9:35 PM37.4 °F37.4 °F100 %30.47 in10.0 miCalmClear
9:55 PM39.2 °F37.4 °F93 %30.47 in10.0 miCalmClear
11:15 PM37.4 °F37.4 °F100 %30.48 in10.0 miCalmClear
11:35 PM35.6 °F35.6 °F100 %30.48 in10.0 miCalmClear
11:55 PM35.6 °F35.6 °F100 %30.48 in10.0 miCalmClear
Hourly data recorded from KORG, located miles away from Orange, Texas







STORIES FROM OUR PARTNERS